This demonstration page uses our WeatherBlox Daily Observations layout. Learn more.

Left ArrowRight Arrow

40.92945, -100.16068

Hourly Observations for July 30, 2020

Temp ( °F °C ) Dew Point ( °F °C ) Humidity (%) Winds ( mph kmh ) Pressure ( in mb ) Visibility ( mi km ) Precip ( " mm )
12:15 am 00:15 Cloudy with Light Rain 66 19 65 18.1 95 95 N 7 11 29.88 1012 10 16.0934 0.01 0.254
12:35 am 00:35 Cloudy with Nearby Thunderstorms 67 19.5 65 18.3 93 93 NE 6 9 29.88 1012 10 16.0934 0.03 0.762
12:55 am 00:55 Mostly Cloudy with Rain 67 19.7 66 18.7 94 94 NE 6 9 29.86 1011 10 16.0934 0.06 1.524
1:15 am 01:15 Partly Cloudy with Light Rain 67 19.6 65 18.5 93 93 ENE 12 19 29.83 1010 10 16.0934 0.01 0.254
1:35 am 01:35 Clear with Light Rain 67 19.5 65 18.2 92 92 NNE 7 11 29.84 1010 10 16.0934 0.01 0.254
1:55 am 01:55 Partly Cloudy with Light Rain 67 19.2 65 18.2 94 94 NNW 6 9 29.86 1011 10 16.0934 0.01 0.254
2:15 am 02:15 Mostly Cloudy with Drizzle 66 19.1 64 17.7 92 92 N 3 6 29.86 1011 10 16.0934 0 0
2:35 am 02:35 Partly Cloudy with Drizzle 66 19 64 17.7 92 92 E 5 7 29.87 1012 10 16.0934 0 0
2:55 am 02:55 Partly Cloudy 66 19.1 64 17.8 92 92 NNW 5 7 29.89 1012 10 16.0934 0 0
3:15 am 03:15 Partly Cloudy 66 18.7 64 18 96 96 NNE 9 15 29.88 1012 10 16.0934 0 0
3:35 am 03:35 Mostly Cloudy 66 18.7 64 18 96 96 NNE 13 20 29.89 1012 10 16.0934 0 0
3:55 am 03:55 Cloudy 66 18.8 64 18 95 95 NNE 8 13 29.9 1013 10 16.0934 0 0
4:15 am 04:15 Cloudy 66 18.8 64 18 95 95 N 8 13 29.91 1013 10 16.0934 0 0
4:35 am 04:35 Cloudy 66 18.8 64 17.7 93 93 N 8 13 29.91 1013 10 16.0934 0 0
4:55 am 04:55 Cloudy 66 18.8 64 17.6 93 93 N 7 11 29.92 1013 10 16.0934 0 0
5:15 am 05:15 Cloudy 66 18.7 64 17.6 93 93 NNE 6 9 29.93 1014 10 16.0934 0 0
5:35 am 05:35 Cloudy 65 18.6 63 17.4 93 93 N 7 11 29.93 1014 10 16.0934 0 0
5:55 am 05:55 Cloudy 65 18.5 63 17.3 93 93 N 6 9 29.93 1013 10 16.0934 0 0
6:15 am 06:15 Cloudy 65 18.5 63 17.3 93 93 N 7 11 29.93 1013 10 16.0934 0 0
6:35 am 06:35 Cloudy 65 18.3 63 17.3 94 94 N 8 13 29.94 1014 10 16.0934 0 0
6:55 am 06:55 Cloudy 65 18.5 64 17.5 94 94 NNW 12 19 29.94 1014 10 16.0934 0 0
7:15 am 07:15 Cloudy with Light Rain 65 18.6 64 17.6 94 94 NNE 14 22 29.95 1014 7 11.26538 0.04 1.016
7:35 am 07:35 Cloudy with Rain 65 18.3 64 17.5 95 95 NNE 12 19 29.97 1015 3 4.82802 0.3 7.62
7:55 am 07:55 Cloudy with Rain 65 18.3 64 17.5 95 95 N 8 13 29.97 1015 7 11.26538 0.32 8.128
8:15 am 08:15 Cloudy with Light Rain 65 18.5 64 17.6 95 95 N 7 11 29.96 1015 10 16.0934 0 0
8:35 am 08:35 Cloudy 66 18.7 64 17.7 94 94 NNE 9 15 29.97 1015 10 16.0934 0 0
8:55 am 08:55 Cloudy 66 19 64 17.8 93 93 NNE 8 13 29.98 1015 10 16.0934 0 0
9:15 am 09:15 Cloudy 66 19.1 64 18 93 93 NNE 8 13 29.98 1015 10 16.0934 0 0
9:35 am 09:35 Cloudy 67 19.5 64 18 91 91 NNE 9 15 29.98 1015 10 16.0934 0 0
9:55 am 09:55 Cloudy 68 20 65 18.2 89 89 N 13 20 29.98 1015 10 16.0934 0 0
10:15 am 10:15 Mostly Cloudy 69 20.5 65 18.4 88 88 N 13 20 29.98 1015 10 16.0934 0 0
10:35 am 10:35 Mostly Cloudy 70 20.9 65 18.5 86 86 NNE 10 17 29.97 1015 10 16.0934 0 0
10:55 am 10:55 Mostly Cloudy 70 21.3 65 18.1 82 82 NNE 12 19 29.97 1015 10 16.0934 0 0
11:15 am 11:15 Mostly Cloudy 71 21.7 65 18.3 81 81 NNE 10 17 29.98 1015 10 16.0934 0 0
11:35 am 11:35 Cloudy 71 21.5 65 18.1 81 81 NNE 9 15 29.99 1016 10 16.0934 0 0
11:55 am 11:55 Cloudy 71 21.6 64 17.7 79 79 NNE 12 19 30 1016 10 16.0934 0 0
12:15 pm 12:15 Cloudy 71 21.4 64 17.8 80 80 NE 9 15 30.01 1016 10 16.0934 0 0
12:35 pm 12:35 Cloudy with Light Rain 70 21 64 17.8 82 82 NE 7 11 30.01 1016 10 16.0934 0 0
12:55 pm 12:55 Cloudy 70 21.3 65 18.6 85 85 NNE 5 7 30.01 1016 10 16.0934 0 0
1:15 pm 13:15 Cloudy 73 22.7 65 18.6 78 78 NNE 8 13 30 1016 10 16.0934 0 0
1:35 pm 13:35 Cloudy 73 22.9 66 19 79 79 NNE 10 17 30 1016 10 16.0934 0 0
1:55 pm 13:55 Cloudy 74 23.1 65 18.6 76 76 NNE 12 19 30 1016 10 16.0934 0 0
2:15 pm 14:15 Mostly Cloudy 74 23.6 64 18 71 71 NNE 9 15 29.99 1016 10 16.0934 0 0
2:35 pm 14:35 Mostly Cloudy 74 23.6 65 18.1 71 71 NE 13 20 29.99 1016 10 16.0934 0 0
2:55 pm 14:55 Partly Cloudy 74 23.5 63 17 67 67 NNE 13 20 29.99 1016 10 16.0934 0 0
3:15 pm 15:15 Partly Cloudy 74 23.6 64 17.5 69 69 NE 12 19 29.99 1016 10 16.0934 0 0
3:35 pm 15:35 Partly Cloudy 74 23.4 62 16.9 67 67 NE 14 22 30 1016 10 16.0934 0 0
3:55 pm 15:55 Sunny 74 23.5 64 17.5 69 69 NE 9 15 30 1016 10 16.0934 0 0
4:15 pm 16:15 Sunny 74 23.6 62 16.6 65 65 NE 12 19 30 1016 10 16.0934 0 0
4:35 pm 16:35 Sunny 75 24.1 64 17.6 67 67 NNE 14 22 30 1016 10 16.0934 0 0
4:55 pm 16:55 Sunny 76 24.6 63 17.2 64 64 NNE 12 19 29.99 1016 10 16.0934 0 0
5:15 pm 17:15 Partly Cloudy 76 24.5 62 16.9 63 63 NE 10 17 29.99 1016 10 16.0934 0 0
5:35 pm 17:35 Partly Cloudy 76 24.6 62 16.8 62 62 NNE 12 19 29.99 1016 10 16.0934 0 0
5:55 pm 17:55 Sunny 74 23.6 61 15.9 62 62 NE 10 17 30 1016 10 16.0934 0 0
6:15 pm 18:15 Sunny 74 23.5 61 16.2 64 64 NE 8 13 30 1016 10 16.0934 0 0
6:35 pm 18:35 Sunny 74 23.6 62 16.4 64 64 N 8 13 30 1016 10 16.0934 0 0
6:55 pm 18:55 Sunny 74 23.6 61 16.3 64 64 NNE 9 15 30 1016 10 16.0934 0 0
7:15 pm 19:15 Sunny 74 23.5 61 16.1 63 63 NE 8 13 30 1016 10 16.0934 0 0
7:35 pm 19:35 Sunny 74 23.2 62 16.7 67 67 NE 7 11 30.01 1016 10 16.0934 0 0
7:55 pm 19:55 Sunny 73 22.9 62 16.7 68 68 NNE 5 7 30.02 1016 10 16.0934 0 0
8:15 pm 20:15 Sunny 72 22.1 63 17 73 73 NE 5 7 30.02 1017 10 16.0934 0 0
8:35 pm 20:35 Sunny 70 21.2 63 17.1 78 78 NE 5 7 30.03 1017 10 16.0934 0 0
8:55 pm 20:55 Sunny 68 20.2 63 17.1 82 82 NE 5 7 30.04 1017 10 16.0934 0 0
9:15 pm 21:15 Clear 67 19.7 63 17.1 85 85 NNE 3 6 30.05 1018 10 16.0934 0 0
9:35 pm 21:35 Clear 66 19 63 17 88 88 N 5 7 30.05 1018 10 16.0934 0 0
9:55 pm 21:55 Clear 65 18.3 63 17 92 92 NNE 5 7 30.07 1018 10 16.0934 0 0
10:15 pm 22:15 Clear 64 18 62 16.7 92 92 N 5 7 30.07 1018 10 16.0934 0 0
10:35 pm 22:35 Clear 64 17.7 62 16.5 93 93 N 5 7 30.08 1019 10 16.0934 0 0
10:55 pm 22:55 Clear 63 17.1 61 16.3 95 95 NNW 3 6 30.1 1019 10 16.0934 0 0
11:15 pm 23:15 Clear 62 16.8 61 16.1 96 96 Calm 30.09 1019 10 16.0934 0 0
11:35 pm 23:35 Clear 63 17 61 16 94 94 NW 3 6 30.09 1019 10 16.0934 0 0
11:55 pm 23:55 Clear 61 16.2 60 15.6 96 96 NW 5 7 30.09 1019 10 16.0934 0 0

Powered by AerisWeather